Terminal Aerodrome Forecast
Issued by NWS

Home | Current Version | Previous Version | Text Only | Print | Product List | Glossary On
Versions: 1 2 3 4 5 6 7 8 9 10 11 12 13 14 15 16 17 18 19 20 21 22 23 24 25 26 27 28 29 30
000
FTUS42 KEYW 201700
TAFMTH
TAF
KMTH 201724Z 2018/2118 VRB05KT P6SM VCTS SCT028CB SCT250
     FM210000 10004KT P6SM FEW028
     FM210900 10006KT P6SM VCSH SCT028=

USA.gov is the U.S. government's official web portal to all federal, state and local government web resources and services.